| time (UTC) | temp F | wind direction | speed knots | gust knots | rain 1hr in | rain 24hr in | rain mn in | humidity % | barometer mb |
| 20260505140240 | 60 | 293 | 13.9 | 15.6 | 0.00 | 0.00 | 0.00 | 57 | 1016.6 |
| 20260505130204 | 59 | 289 | 7.8 | 20.9 | 0.00 | 0.00 | 0.00 | 62 | 1016.4 |
| 20260505124654 | 59 | 265 | 6.1 | 11.3 | 0.00 | 0.00 | 0.00 | 62 | 1016.2 |
| 20260505124151 | 59 | 283 | 9.6 | 13.9 | 0.00 | 0.00 | 0.00 | 62 | 1016.2 |
| 20260505123646 | 58 | 240 | 6.1 | 13.0 | 0.00 | 0.00 | 0.00 | 64 | 1016.1 |
| 20260505123144 | 58 | 278 | 9.6 | 13.0 | 0.00 | 0.00 | 0.00 | 62 | 1016.2 |
| 20260505122640 | 58 | 281 | 3.5 | 13.9 | 0.00 | 0.00 | 0.00 | 65 | 1015.9 |
| 20260505122138 | 58 | 274 | 9.6 | 13.9 | 0.00 | 0.00 | 0.00 | 64 | 1016.1 |
| 20260505121634 | 58 | 259 | 3.5 | 12.2 | 0.00 | 0.00 | 0.00 | 65 | 1016.1 |
| 20260505121131 | 57 | 265 | 5.2 | 9.6 | 0.00 | 0.00 | 0.00 | 66 | 1015.9 |
| 20260505120627 | 57 | 278 | 6.1 | 13.9 | 0.00 | 0.00 | 0.00 | 65 | 1015.7 |
| 20260505120123 | 57 | 269 | 6.1 | 7.8 | 0.00 | 0.00 | 0.00 | 65 | 1015.9 |
| 20260505115617 | 57 | 312 | 5.2 | 8.7 | 0.00 | 0.00 | 0.00 | 65 | 1015.8 |
| 20260505115115 | 57 | 288 | 7.0 | 9.6 | 0.00 | 0.00 | 0.00 | 66 | 1015.7 |
| 20260505114612 | 56 | 269 | 6.1 | 8.7 | 0.00 | 0.00 | 0.00 | 66 | 1015.6 |
| 20260505114108 | 56 | 282 | 6.1 | 8.7 | 0.00 | 0.00 | 0.00 | 67 | 1015.6 |
| 20260505113605 | 56 | 278 | 3.5 | 7.0 | 0.00 | 0.00 | 0.00 | 67 | 1015.6 |
| 20260505113102 | 56 | 321 | 4.3 | 7.0 | 0.00 | 0.00 | 0.00 | 67 | 1015.6 |
| 20260505112558 | 56 | 260 | 5.2 | 9.6 | 0.00 | 0.00 | 0.00 | 68 | 1015.6 |
| 20260505112056 | 55 | 263 | 6.1 | 7.0 | 0.00 | 0.00 | 0.00 | 68 | 1015.6 |
| 20260505111555 | 55 | 299 | 4.3 | 6.1 | 0.00 | 0.00 | 0.00 | 69 | 1015.6 |
| 20260505111052 | 55 | 278 | 5.2 | 7.0 | 0.00 | 0.00 | 0.00 | 70 | 1015.4 |
| 20260505110548 | 55 | 294 | 5.2 | 7.8 | 0.00 | 0.00 | 0.00 | 71 | 1015.5 |
| 20260505102021 | 53 | 274 | 4.3 | 6.1 | 0.00 | 0.00 | 0.00 | 74 | 1015.2 |
| 20260505101519 | 53 | 284 | 1.7 | 5.2 | 0.00 | 0.00 | 0.00 | 74 | 1015.2 |
| 20260505101015 | 53 | 287 | 2.6 | 5.2 | 0.00 | 0.00 | 0.00 | 74 | 1015.2 |
| 20260505100513 | 53 | 264 | 3.5 | 8.7 | 0.00 | 0.00 | 0.00 | 74 | 1015.0 |
| 20260505100010 | 53 | 266 | 4.3 | 6.1 | 0.00 | 0.00 | 0.00 | 74 | 1015.1 |
| 20260505095505 | 53 | 279 | 3.5 | 6.1 | 0.00 | 0.00 | 0.00 | 74 | 1015.0 |
| 20260505095001 | 53 | 259 | 5.2 | 7.0 | 0.00 | 0.00 | 0.00 | 74 | 1014.8 |
| 20260505094458 | 53 | 288 | 3.5 | 5.2 | 0.00 | 0.00 | 0.00 | 74 | 1015.1 |
| 20260505093954 | 53 | 293 | 3.5 | 6.1 | 0.00 | 0.00 | 0.00 | 74 | 1014.8 |
| 20260505093451 | 53 | 279 | 4.3 | 6.1 | 0.00 | 0.00 | 0.00 | 74 | 1015.0 |
| 20260505092949 | 53 | 284 | 5.2 | 7.8 | 0.00 | 0.00 | 0.00 | 73 | 1014.8 |
| 20260505092446 | 53 | 252 | 5.2 | 8.7 | 0.00 | 0.00 | 0.00 | 73 | 1015.1 |
| 20260505091944 | 54 | 265 | 2.6 | 5.2 | 0.00 | 0.00 | 0.00 | 73 | 1015.1 |
| 20260505091441 | 54 | 256 | 6.1 | 7.8 | 0.00 | 0.00 | 0.00 | 72 | 1015.1 |
| 20260505090939 | 54 | 289 | 7.0 | 8.7 | 0.00 | 0.00 | 0.00 | 72 | 1015.2 |
| 20260505090437 | 54 | 278 | 3.5 | 7.0 | 0.00 | 0.00 | 0.00 | 72 | 1015.2 |
| 20260505085934 | 53 | 276 | 3.5 | 5.2 | 0.00 | 0.00 | 0.00 | 72 | 1015.0 |
| 20260505085432 | 54 | 273 | 5.2 | 7.8 | 0.00 | 0.00 | 0.00 | 72 | 1015.2 |
| 20260505084930 | 54 | 275 | 4.3 | 5.2 | 0.00 | 0.00 | 0.00 | 72 | 1015.1 |
| 20260505084428 | 54 | 288 | 4.3 | 6.1 | 0.00 | 0.00 | 0.00 | 72 | 1015.3 |
| 20260505083925 | 54 | 272 | 4.3 | 6.1 | 0.00 | 0.00 | 0.00 | 72 | 1015.1 |
| 20260505083423 | 54 | 265 | 4.3 | 7.8 | 0.00 | 0.00 | 0.00 | 71 | 1015.2 |
| 20260505082918 | 53 | 289 | 4.3 | 5.2 | 0.00 | 0.00 | 0.00 | 72 | 1015.1 |
| 20260505082414 | 53 | 300 | 3.5 | 6.1 | 0.00 | 0.00 | 0.00 | 72 | 1015.2 |
| 20260505081912 | 54 | 282 | 3.5 | 5.2 | 0.00 | 0.00 | 0.00 | 72 | 1015.1 |
| 20260505081408 | 54 | 265 | 1.7 | 5.2 | 0.00 | 0.00 | 0.00 | 72 | 1015.0 |
| 20260505080905 | 54 | 286 | 3.5 | 5.2 | 0.00 | 0.00 | 0.00 | 71 | 1015.0 |
| 20260505080401 | 54 | 281 | 2.6 | 7.0 | 0.00 | 0.00 | 0.00 | 71 | 1014.8 |
| 20260505075857 | 55 | 264 | 3.5 | 7.0 | 0.00 | 0.00 | 0.00 | 70 | 1014.8 |
| 20260505075353 | 55 | 287 | 2.6 | 7.8 | 0.00 | 0.00 | 0.00 | 70 | 1014.8 |
| 20260505074851 | 55 | 275 | 3.5 | 6.1 | 0.00 | 0.00 | 0.00 | 70 | 1014.7 |
| 20260505074348 | 55 | 302 | 5.2 | 7.8 | 0.00 | 0.00 | 0.00 | 70 | 1015.0 |
| 20260505073845 | 55 | 256 | 5.2 | 6.1 | 0.00 | 0.00 | 0.00 | 70 | 1014.8 |
| 20260505073343 | 55 | 266 | 5.2 | 7.0 | 0.00 | 0.00 | 0.00 | 69 | 1014.6 |
| 20260505072840 | 55 | 310 | 3.5 | 7.8 | 0.00 | 0.00 | 0.00 | 68 | 1014.5 |
| 20260505072336 | 55 | 295 | 7.0 | 7.0 | 0.00 | 0.00 | 0.00 | 68 | 1014.6 |
| 20260505071832 | 55 | 291 | 5.2 | 7.8 | 0.00 | 0.00 | 0.00 | 68 | 1014.5 |
| 20260505071329 | 55 | 245 | 6.1 | 8.7 | 0.00 | 0.00 | 0.00 | 67 | 1014.5 |
| 20260505070827 | 56 | 289 | 6.1 | 7.0 | 0.00 | 0.00 | 0.00 | 67 | 1014.6 |
| 20260505070323 | 56 | 289 | 7.0 | 11.3 | 0.00 | 0.00 | 0.00 | 67 | 1014.4 |
| 20260505065818 | 56 | 279 | 5.2 | 7.8 | 0.00 | 0.00 | 0.00 | 66 | 1014.4 |
| 20260505065315 | 56 | 288 | 6.1 | 7.8 | 0.00 | 0.00 | 0.00 | 66 | 1014.6 |
| 20260505064813 | 56 | 287 | 5.2 | 7.0 | 0.00 | 0.00 | 0.00 | 66 | 1014.8 |
| 20260505064309 | 56 | 278 | 6.1 | 12.2 | 0.00 | 0.00 | 0.00 | 65 | 1014.5 |
| 20260505063808 | 57 | 292 | 7.8 | 16.5 | 0.00 | 0.00 | 0.00 | 64 | 1014.5 |
| 20260505063303 | 56 | 279 | 6.1 | 7.8 | 0.00 | 0.00 | 0.00 | 65 | 1014.4 |
| 20260505062800 | 56 | 252 | 6.1 | 11.3 | 0.00 | 0.00 | 0.00 | 65 | 1014.4 |
| 20260505062257 | 56 | 275 | 6.1 | 7.0 | 0.00 | 0.00 | 0.00 | 65 | 1014.5 |
| 20260505061754 | 56 | 284 | 5.2 | 7.0 | 0.00 | 0.00 | 0.00 | 65 | 1014.5 |
| 20260505061252 | 56 | 274 | 3.5 | 6.1 | 0.00 | 0.00 | 0.00 | 66 | 1014.4 |
| 20260505060749 | 56 | 249 | 3.5 | 8.7 | 0.00 | 0.00 | 0.00 | 65 | 1014.4 |
| 20260505060246 | 56 | 261 | 4.3 | 6.1 | 0.00 | 0.00 | 0.00 | 65 | 1014.4 |
| 20260505055742 | 56 | 275 | 5.2 | 7.0 | 0.00 | 0.00 | 0.00 | 65 | 1014.3 |
| 20260505055238 | 56 | 286 | 3.5 | 7.0 | 0.00 | 0.00 | 0.00 | 65 | 1014.3 |
| 20260505054736 | 56 | 272 | 2.6 | 5.2 | 0.00 | 0.00 | 0.00 | 66 | 1014.3 |
| 20260505054233 | 56 | 268 | 4.3 | 7.8 | 0.00 | 0.00 | 0.00 | 65 | 1014.4 |
| 20260505053732 | 56 | 283 | 3.5 | 6.1 | 0.00 | 0.00 | 0.00 | 65 | 1014.4 |
| 20260505053227 | 56 | 275 | 3.5 | 7.0 | 0.00 | 0.00 | 0.00 | 64 | 1014.3 |
| 20260505052725 | 56 | 278 | 3.5 | 7.8 | 0.00 | 0.00 | 0.00 | 64 | 1014.2 |
| 20260505052222 | 56 | 262 | 4.3 | 7.0 | 0.00 | 0.00 | 0.00 | 63 | 1014.4 |
| 20260505051719 | 56 | 303 | 4.3 | 6.1 | 0.00 | 0.00 | 0.00 | 64 | 1014.3 |
| 20260505051217 | 56 | 291 | 4.3 | 7.0 | 0.00 | 0.00 | 0.00 | 65 | 1014.3 |
| 20260505050715 | 56 | 265 | 4.3 | 7.0 | 0.00 | 0.00 | 0.00 | 65 | 1014.2 |
| 20260505050213 | 56 | 274 | 3.5 | 6.1 | 0.00 | 0.00 | 0.00 | 65 | 1014.2 |
| 20260505041648 | 56 | 281 | 3.5 | 7.0 | 0.00 | 0.00 | 0.00 | 64 | 1013.6 |
| 20260505041146 | 56 | 295 | 3.5 | 6.1 | 0.00 | 0.00 | 0.00 | 64 | 1013.9 |
| 20260505040643 | 56 | 283 | 4.3 | 7.0 | 0.00 | 0.00 | 0.00 | 64 | 1013.9 |
| 20260505040140 | 56 | 274 | 3.5 | 5.2 | 0.00 | 0.00 | 0.00 | 64 | 1013.7 |
| 20260505035636 | 56 | 274 | 3.5 | 5.2 | 0.00 | 0.00 | 0.00 | 64 | 1013.7 |
| 20260505035132 | 56 | 281 | 2.6 | 3.5 | 0.00 | 0.00 | 0.00 | 64 | 1014.0 |
| 20260505034629 | 56 | 253 | 1.7 | 3.5 | 0.00 | 0.00 | 0.00 | 64 | 1013.7 |
| 20260505034126 | 56 | 269 | 0.9 | 2.6 | 0.00 | 0.00 | 0.00 | 64 | 1014.0 |
| 20260505033622 | 55 | 278 | 0.9 | 2.6 | 0.00 | 0.00 | 0.00 | 64 | 1014.1 |
| 20260505033121 | 56 | 271 | 0.9 | 1.7 | 0.00 | 0.00 | 0.00 | 63 | 1014.2 |
| 20260505032619 | 56 | 239 | 3.5 | 5.2 | 0.00 | 0.00 | 0.00 | 63 | 1014.3 |
| 20260505032115 | 56 | 261 | 0.0 | 1.7 | 0.00 | 0.00 | 0.00 | 63 | 1014.2 |
| 20260505031612 | 56 | 276 | 1.7 | 2.6 | 0.00 | 0.00 | 0.00 | 61 | 1014.1 |
| 20260505031108 | 57 | 240 | 1.7 | 2.6 | 0.00 | 0.00 | 0.00 | 60 | 1014.3 |
| 20260505030605 | 57 | 213 | 0.0 | 2.6 | 0.00 | 0.00 | 0.00 | 59 | 1014.4 |
| 20260505025557 | 58 | 255 | 3.5 | 5.2 | 0.00 | 0.00 | 0.00 | 58 | 1014.3 |
| 20260505025056 | 58 | 271 | 5.2 | 6.1 | 0.00 | 0.00 | 0.00 | 58 | 1014.6 |
| 20260505024553 | 57 | 289 | 2.6 | 6.1 | 0.00 | 0.00 | 0.00 | 58 | 1014.3 |
| 20260505024050 | 57 | 295 | 3.5 | 5.2 | 0.00 | 0.00 | 0.00 | 58 | 1014.2 |
| 20260505023547 | 58 | 257 | 3.5 | 7.0 | 0.00 | 0.00 | 0.00 | 56 | 1014.5 |
| 20260505023045 | 57 | 274 | 1.7 | 5.2 | 0.00 | 0.00 | 0.00 | 57 | 1014.6 |
| 20260505022542 | 57 | 251 | 1.7 | 2.6 | 0.00 | 0.00 | 0.00 | 57 | 1014.4 |
| 20260505022039 | 58 | 282 | 2.6 | 3.5 | 0.00 | 0.00 | 0.00 | 56 | 1014.3 |
| 20260505021536 | 58 | 267 | 0.9 | 5.2 | 0.00 | 0.00 | 0.00 | 55 | 1014.4 |
| 20260505021033 | 58 | 269 | 5.2 | 6.1 | 0.00 | 0.00 | 0.00 | 54 | 1014.3 |
| 20260505020532 | 58 | 257 | 4.3 | 5.2 | 0.00 | 0.00 | 0.00 | 54 | 1014.4 |
| 20260505020030 | 59 | 261 | 4.3 | 7.0 | 0.00 | 0.00 | 0.00 | 53 | 1014.4 |
| 20260505015526 | 59 | 297 | 3.5 | 7.0 | 0.00 | 0.00 | 0.00 | 53 | 1014.2 |
| 20260505015023 | 59 | 261 | 3.5 | 7.0 | 0.00 | 0.00 | 0.00 | 53 | 1014.2 |
| 20260505014520 | 59 | 273 | 4.3 | 5.2 | 0.00 | 0.00 | 0.00 | 53 | 1014.2 |
| 20260505014018 | 59 | 261 | 3.5 | 6.1 | 0.00 | 0.00 | 0.00 | 53 | 1014.4 |
| 20260505013514 | 60 | 277 | 4.3 | 11.3 | 0.00 | 0.00 | 0.00 | 52 | 1014.2 |
| 20260505013012 | 60 | 259 | 5.2 | 7.8 | 0.00 | 0.00 | 0.00 | 51 | 1014.5 |
| 20260505012510 | 59 | 278 | 4.3 | 7.0 | 0.00 | 0.00 | 0.00 | 52 | 1014.2 |
| 20260505012006 | 60 | 274 | 4.3 | 7.8 | 0.00 | 0.00 | 0.00 | 53 | 1014.3 |
| 20260505011502 | 60 | 279 | 5.2 | 6.1 | 0.00 | 0.00 | 0.00 | 52 | 1014.3 |
| 20260505010959 | 60 | 297 | 7.8 | 8.7 | 0.00 | 0.00 | 0.00 | 52 | 1014.3 |
| 20260505010455 | 60 | 257 | 4.3 | 6.1 | 0.00 | 0.00 | 0.00 | 54 | 1014.2 |
| 20260505005951 | 60 | 284 | 2.6 | 6.1 | 0.00 | 0.00 | 0.00 | 54 | 1014.4 |
| 20260505005448 | 60 | 296 | 3.5 | 5.2 | 0.00 | 0.00 | 0.00 | 54 | 1014.0 |
| 20260505004946 | 60 | 251 | 3.5 | 5.2 | 0.00 | 0.00 | 0.00 | 53 | 1014.1 |
| 20260505004442 | 60 | 255 | 3.5 | 8.7 | 0.00 | 0.00 | 0.00 | 53 | 1014.0 |
| 20260505003939 | 60 | 268 | 3.5 | 3.5 | 0.00 | 0.00 | 0.00 | 53 | 1013.9 |
| 20260505003436 | 61 | 256 | 4.3 | 6.1 | 0.00 | 0.00 | 0.00 | 52 | 1014.1 |
| 20260505002932 | 60 | 263 | 5.2 | 7.8 | 0.00 | 0.00 | 0.00 | 52 | 1013.9 |
| 20260505002429 | 61 | 189 | 3.5 | 6.1 | 0.00 | 0.00 | 0.00 | 51 | 1014.0 |
| 20260505001927 | 61 | 269 | 5.2 | 7.8 | 0.00 | 0.00 | 0.00 | 50 | 1014.1 |
| 20260505001424 | 61 | 273 | 1.7 | 7.8 | 0.00 | 0.00 | 0.00 | 50 | 1014.0 |
| 20260505000921 | 61 | 262 | 1.7 | 7.0 | 0.00 | 0.00 | 0.00 | 50 | 1014.0 |
| 20260505000420 | 62 | 263 | 4.3 | 6.1 | 0.00 | 0.00 | 0.00 | 48 | 1013.9 |
| 20260504235916 | 62 | 287 | 3.5 | 5.2 | 0.00 | 0.00 | 0.00 | 47 | 1013.9 |
| 20260504235413 | 62 | 281 | 3.5 | 7.8 | 0.00 | 0.00 | 0.00 | 45 | 1014.0 |
| 20260504234909 | 63 | 270 | 4.3 | 7.0 | 0.00 | 0.00 | 0.00 | 45 | 1014.0 |
| 20260504234407 | 64 | 249 | 3.5 | 6.1 | 0.00 | 0.00 | 0.00 | 44 | 1013.7 |
| 20260504233903 | 64 | 298 | 4.3 | 11.3 | 0.00 | 0.00 | 0.00 | 43 | 1013.9 |
| 20260504233359 | 64 | 285 | 3.5 | 9.6 | 0.00 | 0.00 | 0.00 | 43 | 1013.9 |
| 20260504232855 | 65 | 268 | 6.1 | 9.6 | 0.00 | 0.00 | 0.00 | 43 | 1013.9 |
| 20260504232353 | 65 | 250 | 6.1 | 11.3 | 0.00 | 0.00 | 0.00 | 42 | 1013.9 |
| 20260504231849 | 65 | 278 | 4.3 | 9.6 | 0.00 | 0.00 | 0.00 | 43 | 1013.7 |
| 20260504231346 | 65 | 265 | 5.2 | 7.0 | 0.00 | 0.00 | 0.00 | 43 | 1013.9 |
| 20260504230842 | 65 | 288 | 7.0 | 13.0 | 0.00 | 0.00 | 0.00 | 43 | 1013.5 |
| 20260504230340 | 65 | 287 | 6.1 | 11.3 | 0.00 | 0.00 | 0.00 | 44 | 1013.7 |
| 20260504225839 | 66 | 272 | 7.8 | 13.9 | 0.00 | 0.00 | 0.00 | 44 | 1013.7 |
| 20260504225335 | 66 | 263 | 5.2 | 8.7 | 0.00 | 0.00 | 0.00 | 47 | 1014.0 |
| 20260504224833 | 66 | 259 | 7.0 | 12.2 | 0.00 | 0.00 | 0.00 | 46 | 1013.7 |
| 20260504224329 | 66 | 274 | 8.7 | 9.6 | 0.00 | 0.00 | 0.00 | 46 | 1013.7 |
| 20260504223826 | 65 | 286 | 3.5 | 7.0 | 0.00 | 0.00 | 0.00 | 47 | 1013.9 |
| 20260504223321 | 67 | 282 | 8.7 | 11.3 | 0.00 | 0.00 | 0.00 | 45 | 1013.7 |
| 20260504222818 | 67 | 206 | 4.3 | 9.6 | 0.00 | 0.00 | 0.00 | 49 | 1013.7 |
| 20260504222315 | 67 | 197 | 4.3 | 7.8 | 0.00 | 0.00 | 0.00 | 47 | 1013.9 |
| 20260504221814 | 66 | 288 | 5.2 | 16.5 | 0.00 | 0.00 | 0.00 | 45 | 1014.0 |
| 20260504221310 | 67 | 267 | 9.6 | 16.5 | 0.00 | 0.00 | 0.00 | 43 | 1013.7 |
| 20260504220807 | 67 | 321 | 5.2 | 7.8 | 0.00 | 0.00 | 0.00 | 43 | 1013.9 |
| 20260504220303 | 66 | 322 | 7.0 | 12.2 | 0.00 | 0.00 | 0.00 | 44 | 1013.7 |
| 20260504215801 | 67 | 316 | 4.3 | 14.8 | 0.00 | 0.00 | 0.00 | 45 | 1013.7 |
| 20260504215257 | 66 | 298 | 7.8 | 13.9 | 0.00 | 0.00 | 0.00 | 45 | 1013.7 |
| 20260504214753 | 67 | 332 | 10.4 | 13.9 | 0.00 | 0.00 | 0.00 | 45 | 1014.0 |
| 20260504214250 | 67 | 279 | 15.6 | 18.2 | 0.00 | 0.00 | 0.00 | 41 | 1013.9 |
| 20260504213747 | 66 | 252 | 7.8 | 11.3 | 0.00 | 0.00 | 0.00 | 49 | 1014.0 |
| 20260504213243 | 65 | 318 | 3.5 | 13.9 | 0.00 | 0.00 | 0.00 | 52 | 1013.7 |
| 20260504212740 | 67 | 252 | 9.6 | 12.2 | 0.00 | 0.00 | 0.00 | 49 | 1013.9 |
| 20260504212236 | 67 | 259 | 4.3 | 12.2 | 0.00 | 0.00 | 0.00 | 49 | 1013.7 |
| 20260504211734 | 66 | 260 | 7.8 | 11.3 | 0.00 | 0.00 | 0.00 | 52 | 1013.7 |
| 20260504211230 | 65 | 311 | 3.5 | 8.7 | 0.00 | 0.00 | 0.00 | 52 | 1013.7 |
| 20260504210728 | 66 | 266 | 8.7 | 11.3 | 0.00 | 0.00 | 0.00 | 50 | 1013.9 |
| 20260504210225 | 67 | 275 | 9.6 | 9.6 | 0.00 | 0.00 | 0.00 | 49 | 1014.1 |
| 20260504205722 | 67 | 297 | 4.3 | 8.7 | 0.00 | 0.00 | 0.00 | 50 | 1014.1 |
| 20260504205220 | 67 | 253 | 8.7 | 12.2 | 0.00 | 0.00 | 0.00 | 50 | 1014.0 |
| 20260504204717 | 67 | 285 | 7.0 | 9.6 | 0.00 | 0.00 | 0.00 | 48 | 1013.9 |
| 20260504204216 | 67 | 299 | 6.1 | 11.3 | 0.00 | 0.00 | 0.00 | 48 | 1014.0 |
| 20260504203715 | 66 | 247 | 9.6 | 15.6 | 0.00 | 0.00 | 0.00 | 48 | 1014.0 |
| 20260504203212 | 67 | 285 | 6.1 | 14.8 | 0.00 | 0.00 | 0.00 | 50 | 1014.1 |
| 20260504202712 | 67 | 298 | 9.6 | 13.0 | 0.00 | 0.00 | 0.00 | 48 | 1013.9 |
| 20260504202209 | 67 | 282 | 5.2 | 7.8 | 0.00 | 0.00 | 0.00 | 48 | 1014.1 |
| 20260504201706 | 67 | 311 | 7.8 | 11.3 | 0.00 | 0.00 | 0.00 | 51 | 1014.1 |
| 20260504201203 | 67 | 271 | 5.2 | 13.9 | 0.00 | 0.00 | 0.00 | 50 | 1013.7 |
| 20260504200701 | 67 | 288 | 6.1 | 12.2 | 0.00 | 0.00 | 0.00 | 50 | 1014.1 |
| 20260504200157 | 67 | 284 | 4.3 | 9.6 | 0.00 | 0.00 | 0.00 | 52 | 1013.9 |
| 20260504195653 | 67 | 304 | 8.7 | 11.3 | 0.00 | 0.00 | 0.00 | 51 | 1014.1 |
| 20260504195149 | 67 | 252 | 3.5 | 12.2 | 0.00 | 0.00 | 0.00 | 50 | 1014.2 |
| 20260504194646 | 66 | 303 | 7.0 | 11.3 | 0.00 | 0.00 | 0.00 | 51 | 1014.1 |
| 20260504194142 | 66 | 317 | 6.1 | 8.7 | 0.00 | 0.00 | 0.00 | 48 | 1014.1 |
| 20260504193639 | 66 | 284 | 9.6 | 11.3 | 0.00 | 0.00 | 0.00 | 48 | 1014.3 |
| 20260504193137 | 66 | 281 | 6.1 | 8.7 | 0.00 | 0.00 | 0.00 | 52 | 1014.2 |
| 20260504192635 | 65 | 317 | 7.0 | 8.7 | 0.00 | 0.00 | 0.00 | 52 | 1014.3 |
| 20260504192133 | 64 | 302 | 4.3 | 9.6 | 0.00 | 0.00 | 0.00 | 53 | 1014.5 |
| 20260504191631 | 62 | 292 | 5.2 | 12.2 | 0.00 | 0.00 | 0.00 | 55 | 1014.6 |
| 20260504191127 | 62 | 305 | 5.2 | 9.6 | 0.00 | 0.00 | 0.00 | 55 | 1014.5 |
| 20260504190623 | 62 | 301 | 4.3 | 7.0 | 0.00 | 0.00 | 0.00 | 58 | 1014.7 |
| 20260504190120 | 60 | 303 | 3.5 | 8.7 | 0.00 | 0.00 | 0.00 | 57 | 1014.5 |
| 20260504185616 | 60 | 340 | 3.5 | 11.3 | 0.00 | 0.00 | 0.00 | 61 | 1014.5 |
| 20260504185113 | 62 | 295 | 12.2 | 15.6 | 0.00 | 0.00 | 0.00 | 55 | 1015.2 |
| 20260504184609 | 63 | 316 | 9.6 | 13.9 | 0.00 | 0.00 | 0.00 | 54 | 1015.0 |
| 20260504184104 | 63 | 283 | 7.0 | 14.8 | 0.00 | 0.00 | 0.00 | 56 | 1014.8 |
| 20260504183601 | 64 | 289 | 4.3 | 14.8 | 0.00 | 0.00 | 0.00 | 57 | 1014.7 |
| 20260504183059 | 64 | 292 | 8.7 | 14.8 | 0.00 | 0.00 | 0.00 | 56 | 1014.8 |
| 20260504182556 | 64 | 278 | 4.3 | 8.7 | 0.00 | 0.00 | 0.00 | 55 | 1014.8 |
| 20260504182053 | 63 | 302 | 11.3 | 13.9 | 0.00 | 0.00 | 0.00 | 56 | 1015.1 |
| 20260504181550 | 62 | 279 | 5.2 | 13.0 | 0.00 | 0.00 | 0.00 | 60 | 1014.8 |
| 20260504181048 | 62 | 266 | 11.3 | 13.0 | 0.00 | 0.00 | 0.00 | 58 | 1015.0 |
| 20260504180547 | 62 | 280 | 10.4 | 13.0 | 0.00 | 0.00 | 0.00 | 58 | 1015.2 |
| 20260504180046 | 61 | 256 | 1.7 | 9.6 | 0.00 | 0.00 | 0.00 | 68 | 1015.2 |
| 20260504175542 | 61 | 323 | 4.3 | 12.2 | 0.00 | 0.00 | 0.00 | 64 | 1015.1 |
| 20260504175039 | 59 | 229 | 5.2 | 7.8 | 0.00 | 0.00 | 0.00 | 67 | 1015.2 |
| 20260504174537 | 59 | 281 | 7.8 | 7.8 | 0.00 | 0.00 | 0.00 | 63 | 1015.2 |
| 20260504174034 | 58 | 298 | 7.0 | 9.6 | 0.00 | 0.00 | 0.00 | 67 | 1015.4 |
| 20260504173531 | 58 | 300 | 7.0 | 9.6 | 0.00 | 0.00 | 0.00 | 67 | 1015.4 |
| 20260504173028 | 57 | 291 | 5.2 | 9.6 | 0.00 | 0.00 | 0.00 | 68 | 1015.4 |
| 20260504172524 | 56 | 269 | 6.1 | 8.7 | 0.00 | 0.00 | 0.00 | 70 | 1015.4 |
| 20260504172021 | 56 | 271 | 6.1 | 13.0 | 0.00 | 0.00 | 0.00 | 69 | 1015.2 |
| 20260504171518 | 57 | 283 | 7.8 | 13.0 | 0.00 | 0.00 | 0.00 | 68 | 1015.5 |
| 20260504171015 | 58 | 336 | 5.2 | 13.9 | 0.00 | 0.00 | 0.00 | 63 | 1015.5 |
| 20260504170510 | 58 | 273 | 4.3 | 7.8 | 0.00 | 0.00 | 0.00 | 65 | 1015.9 |
| 20260504160431 | 58 | 297 | 13.0 | 15.6 | 0.00 | 0.00 | 0.00 | 62 | 1016.5 |
| 20260504150854 | 52 | 267 | 5.2 | 8.7 | 0.00 | 0.00 | 0.00 | 70 | 1016.7 |
| 20260504150351 | 52 | 285 | 7.0 | 12.2 | 0.00 | 0.00 | 0.00 | 69 | 1016.8 |